Regional Weather Roundup
Issued by NWS Jackson, KY

Current Version | Previous Version | Text Only | Print | Product List | Glossary On
Versions: 1 2 3 4 5 6 7 8 9 10 11 12 13 14 15 16 17 18 19 20 21 22 23 24 25 26 27 28 29 30 31 32 33 34 35 36 37 38 39 40 41 42 43 44 45 46 47 48 49 50
000
ASUS43 KJKL 232019
RWRJKL

EAST KENTUCKY HOURLY WEATHER ROUNDUP
NATIONAL WEATHER SERVICE JACKSON KY
400 PM EDT WED APR 23 2014

NOTE: "FAIR" INDICATES FEW OR NO CLOUDS BELOW 12,000 FEET WITH
NO SIGNIFICANT WEATHER AND/OR OBSTRUCTIONS TO VISIBILITY.

* THESE REPORTS ARE NOT UNDER NWS QUALITY CONTROL AND MAY NOT
  REPORT WEATHER SUCH AS PRECIPITATION AND FOG.

KYZ079-080-083-085-087-088-110-112-115-119-120-232100
...EASTERN KENTUCKY...

CITY           SKY/WX    TMP DP  RH WIND       PRES   REMARKS
JACKSON        SUNNY     61  28  28 VRB5      30.03S
LONDON         SUNNY     64  29  26 NW5       30.02F
SOMERSET*      SUNNY     61  30  31 NE8       30.05S
WILLIAMSBURG*  SUNNY     64  28  25 N6        30.01F
MIDDLESBORO*   SUNNY     66  29  24 N10       30.00F
HARLAN APT*    CLEAR     64  21  19 N9G22     29.99F
BLACK MTN*       N/A     55  25  30 NW2         N/A
PIKEVILLE APT* SUNNY     59  28  31 NW5       30.02S
BIG SANDY*     CLEAR     62  29  28 N7        30.02S
ASHLAND*       SUNNY     63  34  34 NW8       30.02
MOREHEAD APT*  CLEAR     59  34  38 W7        30.06
$$

KYZ035-036-041-042-044-050-067-078-099-232100
...CENTRAL KENTUCKY...

CITY           SKY/WX    TMP DP  RH WIND       PRES   REMARKS
MT STERLING*   SUNNY     59  34  38 CALM      30.07F
FLEMING/MASON* SUNNY     57  32  38 NW5       30.07S
DANVILLE*      SUNNY     59  34  38 N3        30.07S
RICHMOND*      SUNNY     57  32  38 NE5       30.05F
LEXINGTON      SUNNY     59  33  37 N3        30.06F
FRANKFORT      SUNNY     59  31  34 VRB5      30.05F
$$

KYZ091>093-OHZ055-061-077-WVZ005-015-034-035-042-232100
...SOUTHERN OHIO/WEST VIRGINIA...

CITY           SKY/WX    TMP DP  RH WIND       PRES   REMARKS
COVINGTON      MOSUNNY   60  33  36 NW8       30.07F
COLUMBUS       MOSUNNY   57  32  38 N9G21     30.07S
DAYTON         MOSUNNY   57  33  40 N9        30.08F
WILMINGTON     SUNNY     56  32  40 NW10      30.06F
HUNTINGTON     SUNNY     60  31  33 N10       30.03S
CHARLESTON     MOSUNNY   61  31  32 W8G18     30.01S
PINEVILLE*     SUNNY     63  31  31 MISG      30.03S
BECKLEY        SUNNY     56  28  34 N10G23    29.98R
BLUEFIELD      SUNNY     60  22  23 N14G21    29.97S
$$

VAZ002-007-008-TNZ017-027-036-066-071-232100
...SOUTHWEST VIRGINIA/EAST TENNESSEE...

CITY           SKY/WX    TMP DP  RH WIND       PRES   REMARKS
WISE*          SUNNY     59  25  27 NW7       30.02R
ABINGDON*      SUNNY     64  20  18 N9G18     29.97F
BRISTOL        SUNNY     68  21  16 W12G17    29.97F
KNOXVILLE      MOSUNNY   67  29  24 VRB3      29.97F
OAK RIDGE      SUNNY     71  30  21 VRB3      29.97F
CROSSVILLE     SUNNY     65  25  22 NE9       30.00F
NASHVILLE      SUNNY     69  35  28 NW6       30.02F
$$

...KEY TO REMARKS...
VSB - VISIBILITY IN MILES
WCI - WIND CHILL INDEX
HX  - HEAT INDEX

$$



USA.gov is the U.S. government's official web portal to all federal, state and local government web resources and services.